This is the latest recevied weather packets stored in our database for station/object W4UWO. If no packets are shown the sender has not sent any weather packets the latest 10 day(s).
| Time | Temp. | Humidity | Pressure | Rain* | Wind** | Luminosity | Snow |
|---|---|---|---|---|---|---|---|
| 1787978132 | 22.22° C | 73% | 1020.3 hPa | 0 mm | - | 0 W/m² | - |
| 1787977832 | 22.22° C | 73% | 1020.2 hPa | 0 mm | - | 0 W/m² | - |
| 1787977532 | 22.78° C | 72% | 1020.3 hPa | 0 mm | - | 0 W/m² | - |
| 1787977232 | 22.78° C | 71% | 1020.1 hPa | 0 mm | - | 0 W/m² | - |
| 1787976928 | 22.78° C | 70% | 1020 hPa | 0 mm | - | 0 W/m² | - |
| 1787976627 | 23.33° C | 71% | 1020.3 hPa | 0 mm | - | 0 W/m² | - |
| 1787976323 | 23.33° C | 70% | 1019.9 hPa | 0 mm | - | 0 W/m² | - |
| 1787976023 | 22.78° C | 72% | 1020 hPa | 0 mm | - | 0 W/m² | - |
| 1787975721 | 22.78° C | 72% | 1020.1 hPa | 0 mm | - | 0 W/m² | - |
| 1787975421 | 23.33° C | 71% | 1020 hPa | 0 mm | - | 0 W/m² | - |
| 1787975120 | 23.33° C | 70% | 1019.8 hPa | 0 mm | - | 0 W/m² | - |
| 1787974819 | 23.89° C | 70% | 1020.1 hPa | 0 mm | - | 0 W/m² | - |
| 1787974518 | 23.33° C | 71% | 1020.2 hPa | 0 mm | - | 0 W/m² | - |
| 1787974214 | 23.89° C | 70% | 1020 hPa | 0 mm | - | 0 W/m² | - |
| 1787973907 | 23.89° C | 69% | 1020 hPa | 0 mm | - | 0 W/m² | - |
| 1787973602 | 23.89° C | 67% | 1020 hPa | 0 mm | - | 0 W/m² | - |
| 1787973309 | 23.89° C | 68% | 1019.8 hPa | 0 mm | - | 0 W/m² | - |
| 1787972996 | 23.89° C | 67% | 1019.8 hPa | 0 mm | - | 0 W/m² | - |
| 1787972692 | 24.44° C | 66% | 1020.1 hPa | 0 mm | - | 0 W/m² | - |
| 1787972390 | 24.44° C | 66% | 1020 hPa | 0 mm | - | 0 W/m² | - |
| 1787972098 | 24.44° C | 65% | 1020 hPa | 0 mm | - | 0 W/m² | - |
| 1787971786 | 24.44° C | 66% | 1019.9 hPa | 0 mm | - | 0 W/m² | - |
| 1787971482 | 24.44° C | 67% | 1019.7 hPa | 0 mm | - | 0 W/m² | - |
| 1787971178 | 24.44° C | 65% | 1019.9 hPa | 0 mm | - | 0 W/m² | - |
| 1787970877 | 25° C | 64% | 1019.8 hPa | 0 mm | - | 0 W/m² | - |
* Rain latest hour (hover to see other rain measurements)
** Current wind speed in m/s (hover to see current wind gust speed)